{"data":{"norad_id":63603,"intl_designator":"2025-078E","name":"SHIYAN-27 OBJECT E","alt_names":[],"object_type":"PAYLOAD","status":"ACTIVE","operator":null,"country":"PRC","launch_date":"2025-04-18","launch_site_code":"TAISC","launch_vehicle":null,"mission":null,"orbit_class":"UNKNOWN","rcs_meters":null,"size_class":null,"mass_kg":null,"dimensions":null,"purposes":[],"wikipedia_slug":null,"has_3d_model":false,"image_url":null,"decayed_at":null,"tle_current":{"epoch":"2026-09-21T23:40:27.998688Z","epoch_age_seconds":79256,"freshness":"FRESH","line1":"1 63603U 25078E   26264.98643517  .00000008  00000+0  73387-4 0  9992","line2":"2 63603  99.6939 270.6922 0001031  88.5303 271.5954 13.57250673 70666","mean_motion":13.57250673,"eccentricity":0.0001031,"inclination_deg":99.6939,"raan_deg":270.6922,"arg_perigee_deg":88.5303,"mean_anomaly_deg":271.5954,"bstar":7.3387e-5,"rev_number":7066,"period_min":106.09683447915,"perigee_km":1044.9352244121,"apogee_km":1046.4660197298,"semimajor_km":7423.8376220709,"source":"CELESTRAK","updated_at":"2026-09-22T09:00:29.238970Z"}}}